FW1873 Weather Reports


time (UTC)temp
F
wind
direction
speed
knots
gust
knots
rain 1hr
in
rain 24hr
in
rain mn
in
humidity
%
barometer
mb
20260507203444 64 8 0.9 3.5 0.00 0.00 0.00 41 1038.4
20260507202442 64 4 2.6 7.0 0.00 0.00 0.00 41 1038.4
20260507201441 64 102 1.7 3.5 0.00 0.00 0.00 43 1038.4
20260507200439 63 71 4.3 7.0 0.00 0.00 0.00 44 1038.4
20260507195505 64 3 2.6 7.0 0.00 0.00 0.00 40 1038.4
20260507194434 65 268 1.7 6.1 0.00 0.00 0.00 43 1038.4
20260507193431 65 38 1.7 4.3 0.00 0.00 0.00 42 1038.7
20260507192430 64 274 3.5 4.3 0.00 0.00 0.00 45 1038.4
20260507191428 63 80 2.6 6.1 0.00 0.00 0.00 42 1038.7
20260507190427 63 262 1.7 4.3 0.00 0.00 0.00 47 1038.7
20260507185424 62 49 1.7 6.1 0.00 0.00 0.00 44 1038.7
20260507184442 63 3 3.5 6.1 0.00 0.00 0.00 43 1038.7
20260507183450 64 58 1.7 3.5 0.00 0.00 0.00 45 1038.9
20260507182447 64 2 2.6 6.1 0.00 0.00 0.00 45 1039.0
20260507181515 63 78 2.6 8.7 0.00 0.00 0.00 46 1039.0
20260507180454 62 344 2.6 7.0 0.00 0.00 0.00 45 1039.0
20260507175442 62 336 4.3 7.0 0.00 0.00 0.00 44 1039.1
20260507174440 62 345 1.7 3.5 0.00 0.00 0.00 44 1039.4
20260507173437 62 263 2.6 7.0 0.00 0.00 0.00 45 1039.4
20260507172436 62 244 3.5 12.2 0.00 0.00 0.00 45 1039.4
20260507171454 62 47 2.6 4.3 0.00 0.00 0.00 46 1039.7
20260507170432 61 356 3.5 6.1 0.00 0.00 0.00 46 1039.7
20260507165430 61 281 1.7 7.0 0.00 0.00 0.00 47 1039.7
20260507164428 61 252 1.7 3.5 0.00 0.00 0.00 47 1039.7
20260507163436 61 324 1.7 7.0 0.00 0.00 0.00 47 1040.1
20260507162425 60 327 1.7 7.0 0.00 0.00 0.00 47 1040.1
20260507161452 60 322 2.6 4.3 0.00 0.00 0.00 47 1040.1
20260507160451 60 205 2.6 7.0 0.00 0.00 0.00 48 1040.1
20260507155419 60 327 4.3 10.4 0.00 0.00 0.00 48 1040.1
20260507154446 59 301 1.7 3.5 0.00 0.00 0.00 47 1040.1
20260507153444 59 17 1.7 7.0 0.00 0.00 0.00 49 1040.1
20260507152442 59 237 3.5 6.1 0.00 0.00 0.00 49 1039.7
20260507151441 59 17 2.6 4.3 0.00 0.00 0.00 49 1039.7
20260507150448 59 338 2.6 4.3 0.00 0.00 0.00 52 1039.7
20260507145446 58 249 3.5 4.3 0.00 0.00 0.00 52 1039.7
20260507144434 58 30 0.9 2.6 0.00 0.00 0.00 51 1039.7
20260507143432 57 305 0.9 2.6 0.00 0.00 0.00 53 1039.7
20260507142430 56 210 1.7 3.5 0.00 0.00 0.00 53 1039.7
20260507141448 56 313 0.9 3.5 0.00 0.00 0.00 52 1040.1
20260507140426 55 313 1.7 4.3 0.00 0.00 0.00 51 1040.1
20260507135424 55 25 1.7 4.3 0.00 0.00 0.00 50 1039.9
20260507134444 54 321 1.7 3.5 0.00 0.00 0.00 26 1040.1
20260507133420 53 63 3.5 7.0 0.00 0.00 0.00 17 1039.7
20260507132458 51 332 0.9 3.5 0.00 0.00 0.00 4 1039.9
20260507131508 49 6 1.7 2.6 0.00 0.00 0.00 1 1040.1
20260507130445 46 25 0.9 2.6 0.00 0.00 0.00 1 1039.7
20260507125454 44 234 1.7 3.5 0.00 0.00 0.00 1 1039.8
20260507124530 43 229 0.0 2.6 0.00 0.00 0.00 1 1040.1
20260507123439 41 225 0.9 0.9 0.00 0.00 0.00 1 1040.1
20260507122437 39 225 0.0 0.9 0.00 0.00 0.00 1 1040.1
20260507121435 38 0.0 0.0 0.00 0.00 0.00 1 1040.1
20260507120453 38 0.0 0.0 0.00 0.00 0.00 1 1040.1
20260507115451 37 0.0 0.0 0.00 0.00 0.00 1 1040.1
20260507114429 36 0.0 0.0 0.00 0.00 0.00 1 1040.1
20260507113527 36 0.0 0.0 0.00 0.00 0.00 1 1040.1
20260507112425 35 0.0 0.0 0.00 0.00 0.00 1 1040.1
20260507111423 35 0.0 0.0 0.00 0.01 0.00 1 1039.7
20260507110521 35 0.0 0.0 0.00 0.01 0.00 1 1039.7
20260507105519 35 0.0 0.0 0.00 0.01 0.00 1 1039.4
20260507104518 35 0.0 0.0 0.00 0.01 0.00 1 1039.4
20260507103545 35 0.0 0.0 0.00 0.01 0.00 1 1039.4
20260507102454 35 0.0 0.0 0.00 0.01 0.00 1 1039.4
20260507101531 35 0.0 0.0 0.00 0.01 0.00 1 1039.4
20260507100439 36 0.0 0.0 0.00 0.01 0.00 1 1039.4
20260507095437 36 0.0 0.0 0.00 0.01 0.00 1 1039.4
20260507094505 36 0.0 0.0 0.00 0.01 0.00 1 1039.4
20260507093533 36 0.0 0.0 0.00 0.01 0.00 1 1039.4
20260507092532 36 0.0 0.0 0.00 0.01 0.00 1 1039.4
20260507091429 36 0.0 0.0 0.00 0.01 0.00 1 1039.0
20260507090507 36 0.0 0.0 0.00 0.01 0.00 1 1039.0
20260507085525 36 0.0 0.0 0.00 0.01 0.00 1 1039.0
20260507084523 37 0.0 0.0 0.00 0.01 0.00 1 1039.0
20260507083531 37 0.0 0.0 0.00 0.01 0.00 1 1039.0
20260507082521 37 0.0 0.0 0.00 0.01 0.00 1 1039.0
20260507081518 37 0.0 0.0 0.00 0.01 0.00 1 1038.8
20260507080516 37 0.0 0.0 0.00 0.01 0.00 1 1038.7
20260507075514 37 0.0 0.0 0.00 0.02 0.00 1 1038.7
20260507074512 37 0.0 0.0 0.00 0.03 0.00 1 1038.7
20260507073511 38 0.0 0.0 0.00 0.05 0.00 1 1038.7
20260507072438 38 0.0 0.0 0.00 0.06 0.00 1 1038.7
20260507071436 38 0.0 0.0 0.00 0.07 0.00 1 1038.9
20260507070534 38 0.0 0.0 0.00 0.10 0.00 1 1038.7
20260507065532 38 0.0 0.0 0.00 0.13 0.00 1 1039.0
20260507064530 38 0.0 0.0 0.00 0.14 0.00 1 1039.0
20260507063530 39 0.0 0.0 0.00 0.14 0.00 1 1039.0
20260507062536 39 0.0 0.0 0.00 0.15 0.00 1 1039.0
20260507061534 39 0.0 0.0 0.00 0.15 0.00 1 1039.0
20260507060453 39 0.0 0.0 0.00 0.18 0.00 1 1039.0
20260507055530 40 0.0 0.0 0.00 0.21 0.00 1 1039.0
20260507054447 40 0.0 0.0 0.00 0.22 0.00 1 1039.0
20260507053445 40 0.0 0.0 0.00 0.24 0.00 1 1039.3
20260507052514 40 0.0 0.0 0.00 0.26 0.00 1 1039.0
20260507051511 40 0.0 0.0 0.00 0.29 0.00 1 1039.0
20260507050459 41 0.0 0.0 0.00 0.38 0.00 1 1039.4
20260507045547 41 0.0 0.0 0.00 0.41 0.00 1 1039.4
20260507044505 41 0.0 0.0 0.00 0.47 0.00 1 1039.4
20260507043433 41 0.0 0.0 0.00 0.48 0.00 1 1039.4
20260507042530 42 0.0 0.0 0.00 0.52 0.00 1 1039.0
20260507041528 42 0.0 0.0 0.00 0.56 0.00 1 1039.4
20260507040516 42 0.0 0.0 0.00 0.64 0.00 1 1039.0
20260507035454 43 0.0 0.0 0.00 0.66 0.66 1 1039.0
20260507034522 43 0.0 0.0 0.00 0.68 0.66 1 1039.0
20260507033450 44 0.0 0.0 0.00 0.68 0.66 1 1039.4
20260507032418 44 0.0 0.0 0.00 0.68 0.66 1 1039.4
20260507031516 44 0.0 0.0 0.00 0.68 0.66 1 1039.4
20260507030514 45 0.0 0.0 0.00 0.68 0.66 1 1039.4
20260507025442 45 0.0 0.0 0.00 0.68 0.66 1 1039.4
20260507024541 46 0.0 0.0 0.00 0.70 0.66 1 1039.4
20260507023439 46 0.0 0.0 0.00 0.71 0.66 1 1039.4
20260507022456 47 0.0 0.0 0.00 0.73 0.66 1 1039.0
20260507021454 47 0.0 0.0 0.00 0.74 0.66 1 1039.2
20260507020533 47 0.0 0.0 0.00 0.76 0.66 1 1039.0
20260507015510 48 0.0 0.0 0.00 0.79 0.66 1 1039.0
20260507014458 48 0.0 0.0 0.00 0.81 0.66 1 1038.7
20260507013456 49 0.0 0.0 0.00 0.82 0.66 8 1038.7
20260507012554 49 0.0 0.0 0.00 0.82 0.66 15 1038.7
20260507011452 50 0.0 0.0 0.00 0.82 0.66 21 1038.4
20260507010450 51 0.0 0.0 0.00 0.86 0.66 30 1038.4
20260507005519 52 0.0 0.0 0.00 0.90 0.66 37 1038.4
20260507004447 53 0.0 0.0 0.00 0.94 0.66 41 1038.4
20260507003515 53 0.0 0.0 0.00 0.94 0.66 42 1038.4
20260507002443 54 0.0 0.0 0.00 0.94 0.66 46 1038.4
20260507001412 55 0.0 0.0 0.00 0.95 0.66 49 1038.0
20260507000300 55 0.0 0.0 0.00 0.96 0.66 49 1038.0
20260506235238 56 0.0 0.0 0.00 0.96 0.66 50 1037.7
20260506234236 56 0.0 0.0 0.00 0.96 0.66 51 1037.7
20260506233234 57 270 0.0 2.6 0.00 0.98 0.66 51 1037.7
20260506232233 58 19 1.7 3.5 0.00 0.99 0.66 52 1037.7
20260506231230 58 2 1.7 4.3 0.00 0.99 0.66 52 1037.7
20260506230229 59 346 1.7 3.5 0.00 0.99 0.66 52 1037.7
20260506225256 59 58 2.6 4.3 0.00 0.99 0.66 52 1037.7
20260506224224 59 28 0.9 2.6 0.00 0.99 0.66 52 1037.7
20260506223222 59 60 0.9 2.6 0.00 0.99 0.66 52 1038.0
20260506222250 59 0.0 0.9 0.00 0.99 0.66 52 1038.0
20260506221249 60 49 1.7 3.5 0.00 0.99 0.66 52 1038.0
20260506220246 60 91 0.9 2.6 0.00 0.99 0.66 51 1038.0
20260506215306 60 286 0.9 2.6 0.00 0.99 0.66 52 1038.0
20260506214302 60 23 0.9 2.6 0.00 1.00 0.66 52 1038.0
20260506213241 60 45 0.9 2.6 0.00 1.00 0.66 52 1038.0
20260506212238 60 0 0.0 0.9 0.00 1.01 0.66 52 1037.9
20260506211236 61 338 0.9 3.5 0.00 1.02 0.66 52 1037.7
20260506210234 61 240 0.9 2.6 0.00 1.02 0.66 52 1037.7
20260506205305 61 325 0.9 2.6 0.00 1.02 0.66 52 1037.5
20260506204241 61 33 0.9 2.6 0.00 1.03 0.66 52 1037.7